[[{"header":{"parameterUnit":"m.s-1","parameterCategory":1,"la1":30.2991,"la2":30.254,"lo1":-89.0895,"lo2":-89.0444,"dy":0.0017,"dx":0.0017,"nx":28,"ny":28,"refTime":"2024-06-21T03:00:00:Z","depth":0,"parameterNumber":2,"parameterNumberName":"U-component_of_WINDS"},"data":[0,0,0,0,0,0,0,0,0,0,0,0,0,0,0,0,0,0,0,0,0,0,0,0,0,0,0,0,0,0,0,0,0,0,0,0,0,0,0,0,0,0,0,0,0,0,0,0,0,0,0,0,0,0,0,0,0,0,0.4228,0.4229,0,0.4321,0.4322,0.4323,0.4362,0.4362,0.4362,0.4362,0.4456,0.4458,0.4461,0,0,0,0,0,0,0,0,0,0,0,0,0,0.4085,0.4087,0.4228,0.423,0.4231,0.432,0.4322,0.4323,0.4362,0.4362,0.4362,0.4362,0.4455,0.4458,0.4461,0,0,0,0,0,0,0,0,0,0,0,0,0,0.4159,0.4088,0.4228,0.4261,0.4265,0.432,0.4322,0.4323,0.4362,0.4362,0.4362,0.4361,0.4454,0.4457,0.4461,0.4491,0,0,0.4474,0.4475,0,0,0,0,0,0,0,0,0.4155,0.4164,0.4255,0.4259,0.4263,0.433,0.4306,0.4379,0.4362,0.4325,0.4362,0.4361,0.4414,0.4421,0.4439,0.4495,0.4499,0.4474,0.4476,0.4478,0.4479,0,0,0,0,0,0,0,0.4149,0.416,0.4265,0.4256,0.4261,0.4271,0.4281,0.432,0.437,0.4328,0.4331,0.4342,0.4416,0.4435,0.4441,0.4501,0.4474,0.4477,0.448,0.4481,0.4585,0.4585,0,0,0,0,0,0,0.4139,0.4156,0.4262,0.4268,0.4207,0.4273,0.4285,0.4309,0.4369,0.4378,0.4342,0.4343,0.4428,0.4437,0.4445,0.4483,0.4478,0.4482,0.4484,0.4585,0.4585,0.4585,0,0,0,0,0,0,0.4136,0.4148,0.4258,0.4213,0.4227,0.4276,0.4302,0.4311,0.433,0.438,0.4389,0.4352,0.4428,0.4439,0.4479,0.4487,0.4483,0.4487,0.4584,0.4585,0.4585,0.4559,0,0,0,0,0,0,0.4132,0.4147,0.4159,0.4213,0.423,0.4291,0.4303,0.4312,0.4336,0.4339,0.4392,0.44,0.4429,0.4473,0.4483,0.4492,0.449,0.4584,0.4584,0.4585,0.456,0.4559,0.4558,0,0,0,0,0,0.4126,0.4148,0.4159,0.4172,0.4246,0.4291,0.4301,0.4334,0.4337,0.4349,0.4381,0.4399,0.4484,0.4477,0.4488,0.4499,0.4583,0.4584,0.4585,0.456,0.4559,0.4558,0,0,0,0,0,0,0.4093,0.4156,0.4169,0.4209,0.4244,0.4298,0.4315,0.4332,0.4368,0.4369,0.4408,0.442,0.4456,0.4481,0.4472,0.453,0.4535,0.4538,0.4512,0.4512,0.4511,0.4504,0.4494,0,0,0,0,0,0.4091,0.4123,0.4176,0.4205,0.4223,0.4265,0.4287,0.4309,0.4347,0.4363,0.4398,0.4435,0.447,0.4492,0.4527,0.4564,0.4575,0.4577,0.4576,0.4575,0.4577,0.4598,0.4599,0.4588,0.4588,0.4588,0,0,0.4086,0.4124,0.4142,0.42,0.423,0.4262,0.4278,0.4311,0.4336,0.4368,0.4408,0.4434,0.4478,0.4516,0.4534,0.4538,0.4583,0.4576,0.4575,0.4578,0.4599,0.46,0.4601,0.4589,0.4589,0.4589,0,0,0.4093,0.4125,0.4153,0.4184,0.4229,0.4258,0.4264,0.4315,0.4334,0.4375,0.4399,0.4428,0.4488,0.4518,0.4541,0.4559,0.4576,0.4569,0.4565,0.4585,0.4586,0.4587,0.4593,0.4595,0.4571,0.4571,0.4571,0,0.4081,0.4131,0.4166,0.4198,0.4222,0.4253,0.4282,0.4309,0.4364,0.438,0.4383,0.4459,0.449,0.4535,0.454,0.4557,0.4566,0.4563,0.4583,0.4584,0.4586,0.4592,0.4594,0.457,0.457,0.457,0.457,0,0.4113,0.4148,0.4165,0.4217,0.4244,0.4274,0.4313,0.4335,0.4355,0.4382,0.4423,0.4461,0.4505,0.4517,0.4536,0.4565,0.4566,0.4575,0.4581,0.4585,0.4592,0.4594,0.4568,0.4569,0.4569,0.4569,0,0,0.4103,0.4174,0.418,0.4204,0.4256,0.4283,0.4314,0.4357,0.4375,0.4412,0.4439,0.4488,0.4498,0.4524,0.4547,0.4564,0.4575,0.4572,0.4573,0.4571,0.4608,0.4601,0.4603,0.4586,0.4587,0.4588,0.4605,0,0.4118,0.4176,0.4207,0.4252,0.4283,0.4312,0.434,0.4374,0.4401,0.4431,0.446,0.4494,0.4504,0.452,0.4538,0.457,0.4583,0.4569,0.4612,0.4613,0.46,0.4606,0.4599,0.4613,0.4607,0.4608,0.4608,0,0.4142,0.4179,0.4226,0.4275,0.4289,0.4313,0.4354,0.4383,0.4423,0.4441,0.4469,0.4492,0.4525,0.4528,0.4575,0.4564,0.4584,0.4602,0.4603,0.4609,0.4611,0.4612,0.4618,0.462,0.4613,0.4612,0.4612,0,0.413,0.419,0.4227,0.4246,0.4304,0.432,0.4345,0.4384,0.4408,0.4443,0.4459,0.4498,0.4519,0.4549,0.4581,0.458,0.4624,0.463,0.464,0.4639,0.4648,0.4647,0.4658,0.466,0.466,0.466,0.466,0,0.4143,0.4171,0.4222,0.4244,0.4276,0.4312,0.4342,0.4369,0.4404,0.4432,0.4459,0.4484,0.4525,0.4556,0.4581,0.4616,0.4625,0.464,0.4647,0.4638,0.4636,0.4651,0.4651,0.4661,0.4661,0.466,0.466,0,0.4135,0.417,0.4212,0.4263,0.4276,0.4297,0.4341,0.4363,0.439,0.4425,0.4435,0.4478,0.4515,0.455,0.4599,0.4616,0.4651,0.4659,0.4638,0.4641,0.4649,0.4648,0.467,0.4675,0.4673,0.4673,0.4673,0,0.4141,0.4163,0.4216,0.4237,0.4261,0.4294,0.4318,0.4353,0.4377,0.4424,0.444,0.4479,0.4512,0.457,0.4605,0.4643,0.4653,0.4658,0.4659,0.4649,0.4653,0.4651,0.4653,0.4657,0.4657,0.4657,0.4657,0,0.4147,0.4164,0.4198,0.4237,0.4265,0.4298,0.4332,0.4347,0.4389,0.4414,0.4452,0.4478,0.4528,0.4566,0.4608,0.4633,0.4652,0.4656,0.466,0.4652,0.4638,0.4646,0.4636,0.4655,0.4656,0.4656,0.4656,0.4656,0.4147,0.4168,0.4208,0.4245,0.4274,0.4305,0.4328,0.4359,0.4391,0.4435,0.4454,0.4492,0.4531,0.4589,0.4614,0.4644,0.4648,0.4655,0.4656,0.4657,0.4655,0.4633,0.4652,0.4652,0.4652,0.4652,0.4652,0,0.4155,0.4183,0.4216,0.4262,0.4291,0.4306,0.4344,0.4367,0.44,0.4435,0.4467,0.451,0.4547,0.4585,0.4624,0.4641,0.465,0.465,0.4649,0.4655,0.4649,0.4642,0.4642,0.4642,0.4642,0.4642,0.4642,0.4642,0.4163,0.4199,0.422,0.427,0.4298,0.4336,0.4356,0.4385,0.4412,0.446,0.4491,0.4515,0.4551,0.4593,0.4627,0.4638,0.4651,0.4648,0.466,0.4654,0.4655,0.4656,0.4649,0.465,0.465,0.4663,0.4663,0.4663]},{"header":{"parameterUnit":"m.s-1","parameterCategory":1,"la1":30.2991,"la2":30.254,"lo1":-89.0895,"lo2":-89.0444,"dy":0.0017,"dx":0.0017,"nx":28,"ny":28,"refTime":"2024-06-21T03:00:00:Z","depth":0,"parameterNumber":3,"parameterNumberName":"V-component_of_WINDS"},"data":[0,0,0,0,0,0,0,0,0,0,0,0,0,0,0,0,0,0,0,0,0,0,0,0,0,0,0,0,0,0,0,0,0,0,0,0,0,0,0,0,0,0,0,0,0,0,0,0,0,0,0,0,0,0,0,0,0,0,4.0151,4.015,0,4.0136,4.0136,4.0135,4.0094,4.0093,4.0092,4.0092,4.0077,4.0078,4.0078,0,0,0,0,0,0,0,0,0,0,0,0,0,4.0145,4.0145,4.0151,4.015,4.015,4.0136,4.0136,4.0135,4.0094,4.0093,4.0092,4.0091,4.0077,4.0078,4.0078,0,0,0,0,0,0,0,0,0,0,0,0,0,4.014,4.0145,4.0151,4.0128,4.0126,4.0136,4.0136,4.0135,4.0095,4.0093,4.0092,4.0091,4.0077,4.0078,4.0078,4.0109,0,0,4.008,4.0081,0,0,0,0,0,0,0,0,4.0141,4.0141,4.0131,4.013,4.0127,4.0115,4.0128,4.0127,4.0095,4.0106,4.0091,4.009,4.0091,4.009,4.0091,4.0109,4.0108,4.008,4.0081,4.0081,4.0081,0,0,0,0,0,0,0,4.0141,4.0141,4.0145,4.0131,4.0129,4.0119,4.0117,4.0128,4.0106,4.0105,4.0102,4.0101,4.009,4.009,4.009,4.0108,4.008,4.0081,4.0081,4.0082,4.0151,4.0152,0,0,0,0,0,0,4.0144,4.0141,4.0145,4.0144,4.0131,4.012,4.0118,4.0121,4.0106,4.0103,4.0102,4.0099,4.009,4.0089,4.0089,4.0125,4.0081,4.0082,4.0082,4.0149,4.0151,4.0153,0,0,0,0,0,0,4.0144,4.0145,4.0146,4.0142,4.0141,4.0122,4.0125,4.0121,4.0121,4.0104,4.01,4.0107,4.0089,4.0088,4.0105,4.0124,4.0082,4.0083,4.0148,4.015,4.0152,4.0196,0,0,0,0,0,0,4.0144,4.0145,4.0157,4.0143,4.0142,4.0161,4.0126,4.0122,4.0123,4.0118,4.0107,4.0104,4.0087,4.0104,4.0105,4.0124,4.0083,4.0146,4.0149,4.0151,4.0193,4.0199,4.0205,0,0,0,0,0,4.0144,4.017,4.0157,4.0158,4.0155,4.0162,4.0162,4.0142,4.0124,4.0136,4.0124,4.0104,4.0122,4.0106,4.0107,4.0126,4.0144,4.0148,4.0151,4.019,4.0198,4.0205,0,0,0,0,0,0,4.0187,4.0167,4.0153,4.0175,4.0171,4.0155,4.0169,4.0151,4.0152,4.0148,4.0124,4.0122,4.0142,4.0136,4.0119,4.0156,4.013,4.0133,4.0159,4.0166,4.0173,4.0173,4.0084,0,0,0,0,0,4.0198,4.0205,4.0188,4.0209,4.0207,4.0189,4.0191,4.0176,4.0171,4.0169,4.0159,4.0155,4.0159,4.0162,4.0166,4.0192,4.0189,4.0206,4.0212,4.0217,4.022,4.0234,4.0241,4.0163,4.0163,4.0163,0,0,4.0223,4.0213,4.0219,4.0217,4.0212,4.022,4.0187,4.0197,4.0203,4.017,4.0185,4.0178,4.0171,4.0193,4.0202,4.0188,4.0241,4.0221,4.0225,4.0226,4.0238,4.0245,4.0252,4.0165,4.0165,4.0165,0,0,4.0271,4.0265,4.0281,4.0277,4.0269,4.0257,4.0261,4.0248,4.0242,4.0256,4.0232,4.0239,4.0247,4.0244,4.0243,4.0291,4.0273,4.0293,4.0325,4.0339,4.0345,4.035,4.0368,4.0374,4.0297,4.0297,4.0297,0,4.0303,4.0313,4.0292,4.0304,4.0304,4.0275,4.0291,4.0288,4.0282,4.0283,4.0268,4.0278,4.0272,4.0292,4.0304,4.0304,4.0309,4.0294,4.0346,4.0351,4.0356,4.0372,4.0378,4.0299,4.0299,4.0299,4.0298,0,4.0352,4.036,4.0375,4.037,4.0371,4.0386,4.0367,4.0371,4.0357,4.0346,4.0361,4.0353,4.0354,4.0358,4.0344,4.0376,4.0368,4.035,4.0323,4.0366,4.0381,4.0387,4.0303,4.0302,4.0301,4.0301,0,0,4.0427,4.041,4.0416,4.0413,4.0403,4.0409,4.0422,4.0423,4.0427,4.0424,4.0435,4.0443,4.0426,4.0425,4.0411,4.0423,4.0462,4.0403,4.0403,4.0414,4.0497,4.0511,4.0518,4.045,4.0451,4.0452,4.0498,0,4.0472,4.0493,4.0475,4.05,4.0507,4.048,4.0491,4.0487,4.0477,4.0482,4.0472,4.0478,4.0455,4.0455,4.0465,4.0455,4.0478,4.0451,4.0459,4.046,4.0461,4.0526,4.0541,4.0585,4.0503,4.0504,4.0505,0,4.0528,4.0528,4.0553,4.0542,4.0544,4.0555,4.0555,4.056,4.0554,4.0546,4.0546,4.0528,4.0541,4.0515,4.0532,4.0515,4.0517,4.0512,4.0514,4.0513,4.0485,4.0528,4.0598,4.0605,4.0514,4.0513,4.0513,0,4.058,4.0586,4.0602,4.06,4.0588,4.0596,4.0591,4.0584,4.0586,4.0586,4.0587,4.0588,4.0589,4.0591,4.0574,4.0557,4.0594,4.0567,4.0588,4.0588,4.0597,4.0596,4.0668,4.0599,4.0598,4.0598,4.0598,0,4.0633,4.0649,4.0625,4.0635,4.0653,4.0632,4.065,4.0643,4.0637,4.0645,4.0622,4.063,4.0608,4.0614,4.0601,4.0618,4.0618,4.0612,4.0609,4.0614,4.0615,4.0615,4.0612,4.06,4.06,4.0599,4.0599,0,4.0693,4.0677,4.0693,4.068,4.0677,4.0691,4.0679,4.0688,4.0678,4.0688,4.069,4.0673,4.0679,4.0663,4.0666,4.0658,4.0681,4.0673,4.0683,4.068,4.0703,4.0701,4.0777,4.0786,4.0711,4.0712,4.0713,0,4.0728,4.074,4.0728,4.0732,4.0728,4.0734,4.0736,4.0716,4.0719,4.0714,4.0724,4.0728,4.073,4.0741,4.073,4.0732,4.0724,4.075,4.0724,4.0729,4.0724,4.0724,4.0725,4.0756,4.0757,4.0758,4.0758,0,4.0791,4.0782,4.0786,4.0787,4.079,4.0789,4.0788,4.0792,4.0771,4.0776,4.0781,4.0783,4.0787,4.0791,4.0792,4.0787,4.0769,4.0767,4.0772,4.0777,4.0783,4.078,4.0698,4.0765,4.0764,4.0764,4.0763,4.0763,4.0839,4.0849,4.0842,4.0847,4.0843,4.0842,4.085,4.0841,4.0845,4.0846,4.0835,4.0843,4.0838,4.0836,4.0834,4.084,4.0828,4.0835,4.0837,4.0839,4.0843,4.0782,4.084,4.084,4.084,4.084,4.0839,0,4.0901,4.0895,4.09,4.0898,4.0902,4.0885,4.0882,4.0887,4.0895,4.0891,4.0894,4.0901,4.0905,4.0894,4.0897,4.0905,4.0897,4.0906,4.0905,4.0905,4.0854,4.0849,4.0913,4.0913,4.0913,4.0913,4.0913,4.0913,4.0934,4.0949,4.094,4.0954,4.0948,4.0956,4.0956,4.0956,4.0953,4.0962,4.0965,4.0958,4.0952,4.0954,4.0957,4.0954,4.0956,4.0969,4.0963,4.0915,4.0908,4.0901,4.0897,4.0969,4.0969,4.1013,4.1013,4.1013]}]]